Location: Street
(51.1247°N, 2.7429°W)
Time: 16:51:51
(UTC+01:00)

UWE-3 - Pass Details

Date: 10 April 2023
Orbit: 576 x 669 km, 97.7° (Epoch: 02 June)

Event Time Altitude Azimuth Distance (km) Brightness Sun altitude
Rises 03:43:39 0° 19° (NNE) 2,936 ? -22.7°
Reaches altitude 10° 03:46:00 10° 27° (NNE) 2,007 ? -22.4°
Maximum altitude 03:50:07 40° 97° (E) 905 ? -22.0°
Enters shadow 03:51:57 26° 148° (SSE) 1,196 ? -21.8°
